CW2285 Weather Reports


Display with metric or nautical units.
time (UTC)temp
F
wind
direction
speed
MPH
gust
MPH
rain 1hr
in
rain 24hr
in
rain mn
in
humidity
%
barometer
mb
20260901131504 83 309 6.0 16.0 0.00 0.00 0.00 15 1008.2
20260901131003 83 288 5.0 10.0 0.00 0.00 0.00 15 1008.2
20260901130004 83 296 6.0 12.0 0.00 0.00 0.00 15 1008.0
20260901125503 83 299 5.0 12.0 0.00 0.00 0.00 15 1008.0
20260901125003 83 310 6.0 16.0 0.00 0.00 0.00 15 1007.9
20260901124504 83 298 6.0 14.0 0.00 0.00 0.00 15 1007.9
20260901124003 83 278 7.0 14.0 0.00 0.00 0.00 15 1008.0
20260901123003 83 301 7.0 15.0 0.00 0.00 0.00 15 1008.1
20260901122503 83 298 7.0 15.0 0.00 0.00 0.00 15 1008.1
20260901122003 83 289 7.0 12.0 0.00 0.00 0.00 15 1008.1
20260901121503 83 280 9.0 15.0 0.00 0.00 0.00 15 1008.1
20260901121004 83 308 5.0 16.0 0.00 0.00 0.00 16 1008.1
20260901120503 83 314 3.0 8.0 0.00 0.00 0.00 16 1008.0
20260901120004 83 301 3.0 8.0 0.00 0.00 0.00 16 1008.1
20260901115503 83 283 4.0 8.0 0.00 0.00 0.00 16 1008.2
20260901115004 83 301 4.0 10.0 0.00 0.00 0.00 17 1008.2
20260901114503 82 284 3.0 7.0 0.00 0.00 0.00 17 1008.3
20260901114003 83 303 3.0 9.0 0.00 0.00 0.00 17 1008.2
20260901113503 83 291 5.0 10.0 0.00 0.00 0.00 17 1008.1
20260901113004 83 303 5.0 12.0 0.00 0.00 0.00 18 1008.0
20260901112504 83 304 3.0 12.0 0.00 0.00 0.00 18 1008.1
20260901111503 83 288 7.0 12.0 0.00 0.00 0.00 19 1008.2
20260901111003 83 298 6.0 12.0 0.00 0.00 0.00 20 1008.2
20260901110003 82 299 5.0 14.0 0.00 0.00 0.00 20 1008.2
20260901105503 83 298 6.0 12.0 0.00 0.00 0.00 20 1008.1
20260901105003 83 295 5.0 12.0 0.00 0.00 0.00 21 1008.2
20260901104504 83 301 5.0 12.0 0.00 0.00 0.00 21 1008.1
20260901104003 83 297 6.0 12.0 0.00 0.00 0.00 21 1008.1
20260901103503 83 285 6.0 14.0 0.00 0.00 0.00 21 1008.3
20260901103004 83 290 7.0 12.0 0.00 0.00 0.00 22 1008.1
20260901102503 83 297 5.0 14.0 0.00 0.00 0.00 22 1008.1
20260901102003 83 302 4.0 12.0 0.00 0.00 0.00 22 1008.1
20260901101503 83 307 5.0 12.0 0.00 0.00 0.00 22 1008.0
20260901101003 83 301 3.0 9.0 0.00 0.00 0.00 22 1007.9
20260901100503 83 309 3.0 10.0 0.00 0.00 0.00 22 1008.0
20260901100004 83 326 5.0 8.0 0.00 0.00 0.00 23 1007.9
20260901095504 83 309 2.0 8.0 0.00 0.00 0.00 23 1007.9
20260901095003 83 304 4.0 12.0 0.00 0.00 0.00 22 1007.9
20260901094503 83 289 5.0 13.0 0.00 0.00 0.00 22 1008.0
20260901094003 84 308 6.0 12.0 0.00 0.00 0.00 22 1007.9
20260901093504 84 306 6.0 12.0 0.00 0.00 0.00 22 1007.9
20260901093003 84 316 4.0 13.0 0.00 0.00 0.00 22 1007.9
20260901092503 83 292 6.0 12.0 0.00 0.00 0.00 22 1007.8
20260901092003 83 305 5.0 13.0 0.00 0.00 0.00 21 1007.8
20260901091503 83 310 5.0 15.0 0.00 0.00 0.00 22 1007.8
20260901091003 84 303 6.0 14.0 0.00 0.00 0.00 22 1007.8
20260901090503 84 306 6.0 15.0 0.00 0.00 0.00 21 1007.9
20260901090004 84 287 6.0 15.0 0.00 0.00 0.00 22 1007.8
20260901085503 84 308 9.0 18.0 0.00 0.00 0.00 21 1007.7
20260901084504 84 296 7.0 15.0 0.00 0.00 0.00 21 1007.7
20260901083503 84 299 6.0 12.0 0.00 0.00 0.00 21 1007.7
20260901083004 84 301 5.0 12.0 0.00 0.00 0.00 21 1007.6
20260901082503 84 309 3.0 13.0 0.00 0.00 0.00 21 1007.6
20260901082004 84 311 5.0 14.0 0.00 0.00 0.00 20 1007.7
20260901081503 84 308 7.0 14.0 0.00 0.00 0.00 20 1007.7
20260901081004 84 302 5.0 15.0 0.00 0.00 0.00 20 1007.8
20260901080503 84 301 9.0 21.0 0.00 0.00 0.00 20 1007.7
20260901075503 84 312 5.0 16.0 0.00 0.00 0.00 20 1007.7
20260901075003 84 307 6.0 14.0 0.00 0.00 0.00 20 1007.6
20260901074503 84 295 7.0 13.0 0.00 0.00 0.00 20 1007.6
20260901074004 84 314 6.0 14.0 0.00 0.00 0.00 20 1007.4
20260901073504 84 295 9.0 17.0 0.00 0.00 0.00 20 1007.4
20260901073003 85 308 6.0 12.0 0.00 0.00 0.00 20 1007.4
20260901072503 85 319 4.0 12.0 0.00 0.00 0.00 20 1007.4
20260901072003 85 294 6.0 13.0 0.00 0.00 0.00 20 1007.6
20260901071503 85 298 7.0 15.0 0.00 0.00 0.00 20 1007.6
20260901071005 85 312 7.0 16.0 0.00 0.00 0.00 20 1007.4
20260901070504 85 295 6.0 12.0 0.00 0.00 0.00 20 1007.5
20260901065504 85 296 4.0 10.0 0.00 0.00 0.00 19 1007.5
20260901064003 86 301 5.0 10.0 0.00 0.00 0.00 20 1007.3
20260901063504 86 313 5.0 12.0 0.00 0.00 0.00 21 1007.2
20260901063003 86 312 5.0 13.0 0.00 0.00 0.00 21 1007.2
20260901062503 85 304 3.0 7.0 0.00 0.00 0.00 21 1007.1
20260901062004 86 305 3.0 9.0 0.00 0.00 0.00 21 1007.1
20260901061503 86 316 5.0 12.0 0.00 0.00 0.00 21 1007.0
20260901061003 86 301 7.0 15.0 0.00 0.00 0.00 21 1007.0
20260901060504 86 309 9.0 15.0 0.00 0.00 0.00 22 1006.9
20260901055503 86 284 7.0 14.0 0.00 0.00 0.00 22 1006.9
20260901055004 86 309 7.0 16.0 0.00 0.00 0.00 21 1007.1
20260901054004 86 293 9.0 21.0 0.00 0.00 0.00 21 1007.2
20260901053503 86 301 10.0 18.0 0.00 0.00 0.00 22 1007.2
20260901053004 87 294 9.0 16.0 0.00 0.00 0.00 23 1007.3
20260901052503 87 297 10.0 18.0 0.00 0.00 0.00 24 1007.3
20260901051503 87 300 6.0 16.0 0.00 0.00 0.00 24 1007.2
20260901051003 87 306 6.0 14.0 0.00 0.00 0.00 24 1007.2
20260901050504 87 302 10.0 20.0 0.00 0.00 0.00 24 1007.1
20260901050003 87 299 10.0 18.0 0.00 0.00 0.00 24 1006.9
20260901045503 87 296 9.0 18.0 0.00 0.00 0.00 24 1006.9
20260901045004 87 288 9.0 17.0 0.00 0.00 0.00 24 1007.1
20260901044506 88 290 7.0 15.0 0.00 0.00 0.00 24 1007.1
20260901044003 88 303 7.0 15.0 0.00 0.00 0.00 24 1007.0
20260901043504 88 301 10.0 16.0 0.00 0.00 0.00 24 1006.9
20260901043004 88 305 6.0 14.0 0.00 0.00 0.00 25 1006.8
20260901042503 88 317 5.0 14.0 0.00 0.00 0.00 25 1006.8
20260901042003 88 299 5.0 12.0 0.00 0.00 0.00 24 1006.8
20260901041003 89 296 8.0 17.0 0.00 0.00 0.00 24 1006.8
20260901040003 89 317 6.0 12.0 0.00 0.00 0.00 24 1006.8
20260901035504 89 305 7.0 17.0 0.00 0.00 0.00 24 1006.7
20260901035003 90 310 8.0 22.0 0.00 0.00 0.00 24 1006.4
20260901034504 90 288 7.0 20.0 0.00 0.00 0.00 25 1006.3
20260901034003 90 294 10.0 23.0 0.00 0.00 0.00 25 1006.3
20260901033504 90 309 8.0 14.0 0.00 0.00 0.00 26 1006.2
20260901033004 90 308 8.0 13.0 0.00 0.00 0.00 26 1006.2
20260901032504 90 306 7.0 12.0 0.00 0.00 0.00 26 1006.0
20260901032003 90 313 9.0 18.0 0.00 0.00 0.00 27 1005.9
20260901030503 92 308 8.0 15.0 0.00 0.00 0.00 27 1005.7
20260901030003 92 294 6.0 15.0 0.00 0.00 0.00 27 1005.6
20260901025503 92 289 7.0 13.0 0.00 0.00 0.00 28 1005.5
20260901022504 94 282 8.0 16.0 0.00 0.00 0.00 27 1005.2
20260901021504 94 298 6.0 16.0 0.00 0.00 0.00 26 1005.1
20260901021003 95 286 10.0 15.0 0.00 0.00 0.00 26 1004.8
20260901020503 95 292 9.0 20.0 0.00 0.00 0.00 25 1004.7
20260901015504 96 287 10.0 20.0 0.00 0.00 0.00 24 1004.7
20260901015004 97 307 5.0 12.0 0.00 0.00 0.00 22 1004.7
20260901014503 97 276 6.0 15.0 0.00 0.00 0.00 22 1004.6
20260901014003 97 310 5.0 21.0 0.00 0.00 0.00 22 1004.6
20260901013504 98 280 5.0 21.0 0.00 0.00 0.00 20 1004.4
20260901013004 99 292 7.0 16.0 0.00 0.00 0.00 21 1004.6
20260901012004 99 307 9.0 16.0 0.00 0.00 0.00 21 1004.5
20260901011504 99 303 6.0 13.0 0.00 0.00 0.00 21 1004.4
20260901011004 99 280 10.0 23.0 0.00 0.00 0.00 20 1004.3
20260901010504 100 288 9.0 20.0 0.00 0.00 0.00 20 1004.4
20260901010004 100 312 10.0 21.0 0.00 0.00 0.00 21 1004.4
20260901005503 100 290 10.0 18.0 0.00 0.00 0.00 20 1004.4
20260901004503 101 259 11.0 21.0 0.00 0.00 0.00 20 1004.2
20260901004003 101 264 8.0 14.0 0.00 0.00 0.00 19 1004.2
20260901003004 102 286 9.0 18.0 0.00 0.00 0.00 19 1004.2
20260901002504 102 297 8.0 20.0 0.00 0.00 0.00 18 1004.3
20260901002003 102 289 10.0 20.0 0.00 0.00 0.00 19 1004.3
20260901001503 102 287 7.0 15.0 0.00 0.00 0.00 19 1004.2
20260901001003 102 317 9.0 20.0 0.00 0.00 0.00 19 1004.2
20260901000504 103 291 12.0 18.0 0.00 0.00 0.00 19 1004.1
20260901000004 103 299 5.0 15.0 0.00 0.00 0.00 18 1004.2
20260831235503 103 299 8.0 18.0 0.00 0.00 0.00 18 1004.2
20260831234503 103 279 7.0 14.0 0.00 0.00 0.00 18 1004.2
20260831233503 104 295 9.0 15.0 0.00 0.00 0.00 18 1004.2
20260831233004 104 278 9.0 16.0 0.00 0.00 0.00 17 1004.2
20260831232503 103 253 6.0 12.0 0.00 0.00 0.00 18 1004.2
20260831232003 104 297 7.0 14.0 0.00 0.00 0.00 18 1004.3
20260831231503 104 309 6.0 13.0 0.00 0.00 0.00 18 1004.3
20260831231004 104 299 9.0 16.0 0.00 0.00 0.00 17 1004.4
20260831230503 104 294 7.0 14.0 0.00 0.00 0.00 17 1004.4
20260831230004 104 291 7.0 12.0 0.00 0.00 0.00 17 1004.5
20260831225503 104 304 6.0 17.0 0.00 0.00 0.00 17 1004.6
20260831225004 104 283 5.0 12.0 0.00 0.00 0.00 17 1004.6
20260831224504 105 286 6.0 17.0 0.00 0.00 0.00 17 1004.7
20260831224003 105 257 9.0 15.0 0.00 0.00 0.00 16 1004.6
20260831223503 105 293 7.0 15.0 0.00 0.00 0.00 17 1004.7
20260831223004 104 307 4.0 12.0 0.00 0.00 0.00 17 1004.9
20260831222503 104 223 2.0 5.0 0.00 0.00 0.00 18 1005.1
20260831222003 104 222 5.0 7.0 0.00 0.00 0.00 18 1005.1
20260831220504 104 116 2.0 10.0 0.00 0.00 0.00 18 1005.2
20260831220004 104 77 5.0 8.0 0.00 0.00 0.00 18 1005.3
20260831215503 104 81 5.0 9.0 0.00 0.00 0.00 19 1005.6
20260831215004 103 105 3.0 6.0 0.00 0.00 0.00 18 1005.7
20260831214504 103 109 2.0 5.0 0.00 0.00 0.00 18 1005.7
20260831214004 103 254 4.0 7.0 0.00 0.00 0.00 18 1005.7
20260831213503 103 254 5.0 7.0 0.00 0.00 0.00 19 1005.7
20260831213004 102 227 3.0 7.0 0.00 0.00 0.00 19 1005.8
20260831212503 102 276 1.0 3.0 0.00 0.00 0.00 18 1006.0
20260831212004 102 346 1.0 3.0 0.00 0.00 0.00 20 1006.2
20260831211503 102 214 3.0 6.0 0.00 0.00 0.00 20 1006.2
20260831211004 102 324 1.0 5.0 0.00 0.00 0.00 20 1006.3
20260831210504 103 240 5.0 8.0 0.00 0.00 0.00 18 1006.5
20260831210004 102 235 3.0 6.0 0.00 0.00 0.00 20 1006.5
20260831205503 101 340 2.0 5.0 0.00 0.00 0.00 21 1006.6
20260831205003 102 245 5.0 6.0 0.00 0.00 0.00 19 1006.7
20260831204504 101 210 3.0 7.0 0.00 0.00 0.00 19 1006.7
20260831204003 102 133 2.0 6.0 0.00 0.00 0.00 19 1006.7
20260831203503 101 61 2.0 6.0 0.00 0.00 0.00 18 1006.8
20260831203004 102 178 5.0 7.0 0.00 0.00 0.00 19 1006.8
20260831202503 101 150 3.0 6.0 0.00 0.00 0.00 19 1006.9
20260831201504 101 289 1.0 6.0 0.00 0.00 0.00 20 1007.1
20260831201004 100 187 4.0 7.0 0.00 0.00 0.00 20 1007.2
20260831200504 100 223 2.0 9.0 0.00 0.00 0.00 19 1007.3
20260831200003 100 180 5.0 12.0 0.00 0.00 0.00 19 1007.3
20260831195004 100 98 2.0 6.0 0.00 0.00 0.00 20 1007.3
20260831194503 101 118 3.0 13.0 0.00 0.00 0.00 18 1007.3
20260831194004 101 100 6.0 9.0 0.00 0.00 0.00 19 1007.4
20260831193504 100 34 1.0 8.0 0.00 0.00 0.00 19 1007.5
20260831193003 100 144 1.0 5.0 0.00 0.00 0.00 19 1007.6
20260831192503 100 42 1.0 6.0 0.00 0.00 0.00 20 1007.6
20260831192004 99 48 2.0 5.0 0.00 0.00 0.00 22 1007.7
20260831191504 98 232 1.0 3.0 0.00 0.00 0.00 19 1007.8
20260831191004 100 77 3.0 8.0 0.00 0.00 0.00 19 1007.8
20260831190503 100 38 3.0 9.0 0.00 0.00 0.00 20 1007.8
20260831190003 100 82 5.0 10.0 0.00 0.00 0.00 19 1007.8
20260831184504 99 98 6.0 10.0 0.00 0.00 0.00 19 1007.9
20260831184004 99 127 6.0 12.0 0.00 0.00 0.00 19 1007.9
20260831183503 99 105 2.0 9.0 0.00 0.00 0.00 19 1007.9
20260831183004 98 83 2.0 9.0 0.00 0.00 0.00 19 1007.9
20260831182503 98 124 1.0 3.0 0.00 0.00 0.00 21 1007.9
20260831182003 97 197 4.0 8.0 0.00 0.00 0.00 19 1007.9
20260831181504 98 159 2.0 6.0 0.00 0.00 0.00 19 1007.9
20260831181004 97 107 2.0 5.0 0.00 0.00 0.00 20 1007.9
20260831180503 97 122 1.0 3.0 0.00 0.00 0.00 20 1007.9
20260831180003 97 112 3.0 5.0 0.00 0.00 0.00 20 1007.9
20260831175503 96 60 1.0 3.0 0.00 0.00 0.00 21 1007.9
20260831175003 96 232 2.0 3.0 0.00 0.00 0.00 22 1007.9
20260831174004 96 165 2.0 5.0 0.00 0.00 0.00 22 1008.0
20260831173503 96 232 2.0 5.0 0.00 0.00 0.00 22 1008.0
20260831173003 96 137 2.0 5.0 0.00 0.00 0.00 23 1008.0
20260831172503 95 150 2.0 3.0 0.00 0.00 0.00 24 1008.0
20260831172004 95 203 3.0 6.0 0.00 0.00 0.00 25 1008.1
20260831171503 94 183 1.0 3.0 0.00 0.00 0.00 25 1008.1
20260831170504 94 199 2.0 6.0 0.00 0.00 0.00 27 1008.0
20260831170003 94 217 4.0 7.0 0.00 0.00 0.00 27 1007.9
20260831165004 94 211 5.0 6.0 0.00 0.00 0.00 27 1007.9
20260831164503 93 214 3.0 5.0 0.00 0.00 0.00 29 1007.9
20260831164004 92 234 5.0 7.0 0.00 0.00 0.00 28 1007.9
20260831163503 92 198 3.0 7.0 0.00 0.00 0.00 29 1007.9
20260831163003 92 234 4.0 7.0 0.00 0.00 0.00 28 1007.9
20260831162503 92 233 6.0 7.0 0.00 0.00 0.00 27 1007.8
20260831162003 91 208 6.0 9.0 0.00 0.00 0.00 28 1007.8
20260831161503 91 205 5.0 7.0 0.00 0.00 0.00 29 1007.8
20260831160503 92 232 6.0 10.0 0.00 0.00 0.00 26 1007.8
20260831160003 91 234 4.0 9.0 0.00 0.00 0.00 26 1007.8
20260831155504 91 228 4.0 8.0 0.00 0.00 0.00 26 1007.8
20260831155004 91 238 4.0 8.0 0.00 0.00 0.00 24 1007.7
20260831154004 90 286 5.0 10.0 0.00 0.00 0.00 22 1007.7
20260831153504 90 279 6.0 12.0 0.00 0.00 0.00 23 1007.7
20260831153004 90 283 2.0 12.0 0.00 0.00 0.00 22 1007.6
20260831152004 90 295 5.0 9.0 0.00 0.00 0.00 21 1007.6
20260831151504 89 297 3.0 10.0 0.00 0.00 0.00 21 1007.7
20260831151003 89 300 3.0 8.0 0.00 0.00 0.00 22 1007.6
20260831150504 88 296 6.0 12.0 0.00 0.00 0.00 22 1007.6
20260831145503 88 284 6.0 12.0 0.00 0.00 0.00 22 1007.4
20260831145004 87 293 5.0 9.0 0.00 0.00 0.00 23 1007.4
20260831144504 87 292 7.0 12.0 0.00 0.00 0.00 24 1007.3
20260831144003 87 291 3.0 12.0 0.00 0.00 0.00 24 1007.3
20260831143004 86 271 5.0 14.0 0.00 0.00 0.00 25 1007.3
20260831142503 86 274 7.0 12.0 0.00 0.00 0.00 25 1007.3
20260831142003 86 297 9.0 14.0 0.00 0.00 0.00 25 1007.2
20260831141504 86 293 6.0 17.0 0.00 0.00 0.00 26 1007.1
20260831141003 86 281 7.0 14.0 0.00 0.00 0.00 26 1006.9
20260831140003 85 288 6.0 15.0 0.00 0.00 0.00 27 1006.7
20260831135503 85 283 9.0 17.0 0.00 0.00 0.00 28 1006.7
20260831135003 85 290 7.0 14.0 0.00 0.00 0.00 28 1006.7
20260831134503 84 273 7.0 17.0 0.00 0.00 0.00 28 1006.6
20260831134004 84 258 7.0 12.0 0.00 0.00 0.00 30 1006.6
20260831133503 84 278 9.0 14.0 0.00 0.00 0.00 30 1006.5
20260831132004 84 273 7.0 14.0 0.00 0.00 0.00 32 1006.2